Time,TemperatureF,DewpointF,PressureIn,WindDirection,WindDirectionDegrees,WindSpeedMPH,WindSpeedGustMPH,Humidity,HourlyPrecipIn,Conditions,Clouds,dailyrainin,SolarRadiationWatts/m^2,SoftwareType,DateUTC
2013-01-25 00:02:00,26.0,24.0,-100.00,East,87,0.0,3.0,91,0.00,,,0.01,0.000000,,2013-01-25 07:02:00,
2013-01-25 00:11:00,26.0,24.0,-100.00,East,87,0.0,3.0,91,0.00,,,0.01,0.000000,,2013-01-25 07:11:00,
2013-01-25 00:21:00,26.0,24.0,-100.00,East,87,0.0,3.0,91,0.00,,,0.01,0.000000,,2013-01-25 07:21:00,
2013-01-25 00:52:00,26.0,24.0,-100.00,ENE,78,0.0,0.0,91,0.00,,,0.01,0.000000,,2013-01-25 07:52:00,
2013-01-25 01:01:00,26.0,24.0,-100.00,ENE,78,0.0,0.0,91,0.00,,,0.01,0.000000,,2013-01-25 08:01:00,
2013-01-25 01:11:00,26.0,24.0,-100.00,ENE,78,0.0,0.0,91,0.00,,,0.01,0.000000,,2013-01-25 08:11:00,
2013-01-25 01:21:00,26.0,24.0,-100.00,ENE,78,0.0,0.0,91,0.00,,,0.01,0.000000,,2013-01-25 08:21:00,
2013-01-25 01:52:00,25.0,23.0,-100.00,ESE,116,0.0,3.0,92,0.00,,,0.01,0.000000,,2013-01-25 08:52:00,
2013-01-25 02:01:00,25.0,23.0,-100.00,ESE,116,0.0,3.0,92,0.00,,,0.01,0.000000,,2013-01-25 09:01:00,
2013-01-25 02:11:00,25.0,23.0,-100.00,ESE,116,0.0,3.0,92,0.00,,,0.01,0.000000,,2013-01-25 09:11:00,
2013-01-25 02:21:00,25.0,23.0,-100.00,ESE,116,0.0,3.0,92,0.00,,,0.01,0.000000,,2013-01-25 09:21:00,
2013-01-25 02:52:00,23.0,22.0,-100.00,NE,40,0.0,4.0,96,0.00,,,0.01,0.000000,,2013-01-25 09:52:00,
2013-01-25 03:01:00,23.0,22.0,-100.00,NE,40,0.0,4.0,96,0.00,,,0.01,0.000000,,2013-01-25 10:01:00,
2013-01-25 03:11:00,23.0,22.0,-100.00,NE,40,0.0,4.0,96,0.00,,,0.01,0.000000,,2013-01-25 10:11:00,
2013-01-25 03:21:00,23.0,22.0,-100.00,NE,40,0.0,4.0,96,0.00,,,0.01,0.000000,,2013-01-25 10:21:00,
2013-01-25 03:52:00,23.0,21.0,-100.00,ENE,78,0.0,4.0,93,-99.99,,,0.00,0.000000,,2013-01-25 10:52:00,
2013-01-25 04:02:00,23.0,21.0,-100.00,ENE,78,0.0,4.0,93,-99.99,,,0.00,0.000000,,2013-01-25 11:02:00,
2013-01-25 04:11:00,23.0,21.0,-100.00,ENE,78,0.0,4.0,93,-99.99,,,0.00,0.000000,,2013-01-25 11:11:00,
2013-01-25 04:21:00,23.0,21.0,-100.00,ENE,78,0.0,4.0,93,-99.99,,,0.00,0.000000,,2013-01-25 11:21:00,
2013-01-25 04:52:00,24.0,22.0,-100.00,SE,130,0.0,5.0,92,0.00,,,0.00,0.000000,,2013-01-25 11:52:00,
2013-01-25 05:02:00,24.0,22.0,-100.00,SE,130,0.0,5.0,92,0.00,,,0.00,0.000000,,2013-01-25 12:02:00,
2013-01-25 05:11:00,24.0,22.0,-100.00,SE,130,0.0,5.0,92,0.00,,,0.00,0.000000,,2013-01-25 12:11:00,
2013-01-25 05:21:00,24.0,22.0,-100.00,SE,130,0.0,5.0,92,0.00,,,0.00,0.000000,,2013-01-25 12:21:00,
2013-01-25 05:53:00,25.0,22.0,-100.00,North,8,0.0,5.0,89,0.00,,,0.00,0.000000,,2013-01-25 12:53:00,
2013-01-25 06:02:00,25.0,22.0,-100.00,North,8,0.0,5.0,89,0.00,,,0.00,0.000000,,2013-01-25 13:02:00,
2013-01-25 06:11:00,25.0,22.0,-100.00,North,8,0.0,5.0,89,0.00,,,0.00,0.000000,,2013-01-25 13:11:00,
2013-01-25 06:21:00,25.0,22.0,-100.00,North,8,0.0,5.0,89,0.00,,,0.00,0.000000,,2013-01-25 13:21:00,
2013-01-25 06:53:00,27.0,22.0,-100.00,East,79,1.0,7.0,80,0.00,,,0.00,0.000000,,2013-01-25 13:53:00,
2013-01-25 07:02:00,27.0,22.0,-100.00,East,79,1.0,7.0,80,0.00,,,0.00,0.000000,,2013-01-25 14:02:00,
2013-01-25 07:12:00,27.0,22.0,-100.00,East,79,1.0,7.0,80,0.00,,,0.00,0.000000,,2013-01-25 14:12:00,
2013-01-25 07:22:00,27.0,22.0,-100.00,East,79,1.0,7.0,80,0.00,,,0.00,0.000000,,2013-01-25 14:22:00,
2013-01-25 07:53:00,35.0,24.0,-100.00,SSW,209,5.0,14.0,64,0.00,,,0.00,0.000000,,2013-01-25 14:53:00,
2013-01-25 08:02:00,35.0,24.0,-100.00,SSW,209,5.0,14.0,64,0.00,,,0.00,0.000000,,2013-01-25 15:02:00,
2013-01-25 08:12:00,35.0,24.0,-100.00,SSW,209,5.0,14.0,64,0.00,,,0.00,0.000000,,2013-01-25 15:12:00,
2013-01-25 08:22:00,35.0,24.0,-100.00,SSW,209,5.0,14.0,64,0.00,,,0.00,0.000000,,2013-01-25 15:22:00,
2013-01-25 08:53:00,36.0,23.0,-100.00,SSW,213,6.0,16.0,58,0.00,,,0.00,0.000000,,2013-01-25 15:53:00,
2013-01-25 09:03:00,36.0,23.0,-100.00,SSW,213,6.0,16.0,58,0.00,,,0.00,0.000000,,2013-01-25 16:03:00,
2013-01-25 09:11:00,36.0,23.0,-100.00,SSW,213,6.0,16.0,58,0.00,,,0.00,0.000000,,2013-01-25 16:11:00,
2013-01-25 09:22:00,36.0,23.0,-100.00,SSW,213,6.0,16.0,58,0.00,,,0.00,0.000000,,2013-01-25 16:22:00,
2013-01-25 09:53:00,36.0,25.0,-100.00,WSW,242,5.0,12.0,63,0.00,,,0.00,18.000000,,2013-01-25 16:53:00,
2013-01-25 10:02:00,36.0,25.0,-100.00,WSW,242,5.0,12.0,63,0.00,,,0.00,18.000000,,2013-01-25 17:02:00,
2013-01-25 10:11:00,36.0,25.0,-100.00,WSW,242,5.0,12.0,63,0.00,,,0.00,18.000000,,2013-01-25 17:11:00,
2013-01-25 10:22:00,36.0,25.0,-100.00,WSW,242,5.0,12.0,63,0.00,,,0.00,18.000000,,2013-01-25 17:22:00,
2013-01-25 10:53:00,37.0,25.0,-100.00,SW,217,6.0,16.0,62,0.00,,,0.00,75.000000,,2013-01-25 17:53:00,
2013-01-25 11:02:00,37.0,25.0,-100.00,SW,217,6.0,16.0,62,0.00,,,0.00,75.000000,,2013-01-25 18:02:00,
2013-01-25 11:11:00,37.0,25.0,-100.00,SW,217,6.0,16.0,62,0.00,,,0.00,75.000000,,2013-01-25 18:11:00,
2013-01-25 11:23:00,37.0,25.0,-100.00,SW,217,6.0,16.0,62,0.00,,,0.00,75.000000,,2013-01-25 18:23:00,
2013-01-25 11:52:00,39.0,27.0,-100.00,SW,230,7.0,16.0,63,0.00,,,0.00,89.000000,,2013-01-25 18:52:00,
2013-01-25 12:02:00,39.0,27.0,-100.00,SW,230,7.0,16.0,63,0.00,,,0.00,89.000000,,2013-01-25 19:02:00,
2013-01-25 12:12:00,39.0,27.0,-100.00,SW,230,7.0,16.0,63,0.00,,,0.00,89.000000,,2013-01-25 19:12:00,
2013-01-25 12:21:00,39.0,27.0,-100.00,SW,230,7.0,16.0,63,0.00,,,0.00,89.000000,,2013-01-25 19:21:00,
2013-01-25 12:53:00,41.0,27.0,-100.00,SW,227,7.0,19.0,58,0.00,,,0.00,189.000000,,2013-01-25 19:53:00,
2013-01-25 13:02:00,41.0,27.0,-100.00,SW,227,7.0,19.0,58,0.00,,,0.00,189.000000,,2013-01-25 20:02:00,
2013-01-25 13:12:00,41.0,27.0,-100.00,SW,227,7.0,19.0,58,0.00,,,0.00,189.000000,,2013-01-25 20:12:00,
2013-01-25 13:22:00,41.0,27.0,-100.00,SW,227,7.0,19.0,58,0.00,,,0.00,189.000000,,2013-01-25 20:22:00,
2013-01-25 13:52:00,40.0,27.0,-100.00,SW,218,7.0,17.0,59,0.00,,,0.00,181.000000,,2013-01-25 20:52:00,
2013-01-25 14:02:00,40.0,27.0,-100.00,SW,218,7.0,17.0,59,0.00,,,0.00,181.000000,,2013-01-25 21:02:00,
2013-01-25 14:11:00,40.0,27.0,-100.00,SW,218,7.0,17.0,59,0.00,,,0.00,181.000000,,2013-01-25 21:11:00,
2013-01-25 14:22:00,40.0,27.0,-100.00,SW,218,7.0,17.0,59,0.00,,,0.00,181.000000,,2013-01-25 21:22:00,
2013-01-25 14:52:00,41.0,29.0,-100.00,SW,224,3.0,18.0,62,0.00,,,0.00,142.000000,,2013-01-25 21:52:00,
2013-01-25 15:02:00,41.0,29.0,-100.00,SW,224,3.0,18.0,62,0.00,,,0.00,142.000000,,2013-01-25 22:02:00,
2013-01-25 15:11:00,41.0,29.0,-100.00,SW,224,3.0,18.0,62,0.00,,,0.00,142.000000,,2013-01-25 22:11:00,
2013-01-25 15:22:00,41.0,29.0,-100.00,SW,224,3.0,18.0,62,0.00,,,0.00,142.000000,,2013-01-25 22:22:00,
2013-01-25 15:52:00,41.0,29.0,-100.00,East,89,0.0,12.0,63,0.00,,,0.00,117.000000,,2013-01-25 22:52:00,
2013-01-25 16:02:00,41.0,29.0,-100.00,East,89,0.0,12.0,63,0.00,,,0.00,117.000000,,2013-01-25 23:02:00,
2013-01-25 16:11:00,41.0,29.0,-100.00,East,89,0.0,12.0,63,0.00,,,0.00,117.000000,,2013-01-25 23:11:00,
2013-01-25 16:22:00,41.0,29.0,-100.00,East,89,0.0,12.0,63,0.00,,,0.00,117.000000,,2013-01-25 23:22:00,
2013-01-25 16:52:00,41.0,29.0,-100.00,NW,313,0.0,7.0,61,0.00,,,0.00,70.000000,,2013-01-25 23:52:00,
2013-01-25 17:01:00,41.0,29.0,-100.00,NW,313,0.0,7.0,61,0.00,,,0.00,70.000000,,2013-01-26 00:01:00,
2013-01-25 17:11:00,41.0,29.0,-100.00,NW,313,0.0,7.0,61,0.00,,,0.00,70.000000,,2013-01-26 00:11:00,
2013-01-25 17:22:00,41.0,29.0,-100.00,NW,313,0.0,7.0,61,0.00,,,0.00,70.000000,,2013-01-26 00:22:00,
2013-01-25 17:53:00,37.0,29.0,-100.00,NE,53,0.0,5.0,74,0.00,,,-99.99,33.000000,,2013-01-26 00:53:00,
2013-01-25 18:01:00,37.0,29.0,-100.00,NE,53,0.0,5.0,74,0.00,,,-99.99,33.000000,,2013-01-26 01:01:00,
2013-01-25 18:11:00,37.0,29.0,-100.00,NE,53,0.0,5.0,74,0.00,,,-99.99,33.000000,,2013-01-26 01:11:00,
2013-01-25 18:22:00,37.0,29.0,-100.00,NE,53,0.0,5.0,74,0.00,,,-99.99,33.000000,,2013-01-26 01:22:00,
2013-01-25 18:52:00,37.0,28.0,-100.00,NW,310,0.0,4.0,71,0.00,,,0.00,2.000000,,2013-01-26 01:52:00,
2013-01-25 19:01:00,37.0,28.0,-100.00,NW,310,0.0,4.0,71,0.00,,,0.00,2.000000,,2013-01-26 02:01:00,
2013-01-25 19:11:00,37.0,28.0,-100.00,NW,310,0.0,4.0,71,0.00,,,0.00,2.000000,,2013-01-26 02:11:00,
2013-01-25 19:22:00,37.0,28.0,-100.00,NW,310,0.0,4.0,71,0.00,,,0.00,2.000000,,2013-01-26 02:22:00,
2013-01-25 19:52:00,36.0,29.0,-100.00,NNE,22,1.0,8.0,76,0.00,,,0.00,0.000000,,2013-01-26 02:52:00,
2013-01-25 20:01:00,36.0,29.0,-100.00,NNE,22,1.0,8.0,76,0.00,,,0.00,0.000000,,2013-01-26 03:01:00,
2013-01-25 20:11:00,36.0,29.0,-100.00,NNE,22,1.0,8.0,76,0.00,,,0.00,0.000000,,2013-01-26 03:11:00,
2013-01-25 20:21:00,36.0,29.0,-100.00,NNE,22,1.0,8.0,76,0.00,,,0.00,0.000000,,2013-01-26 03:21:00,
2013-01-25 20:52:00,37.0,29.0,-100.00,SW,221,5.0,15.0,74,0.00,,,0.00,0.000000,,2013-01-26 03:52:00,
2013-01-25 21:01:00,37.0,29.0,-100.00,SW,221,5.0,15.0,74,0.00,,,0.00,0.000000,,2013-01-26 04:01:00,
2013-01-25 21:12:00,37.0,29.0,-100.00,SW,221,5.0,15.0,74,0.00,,,0.00,0.000000,,2013-01-26 04:12:00,
2013-01-25 21:21:00,37.0,29.0,-100.00,SW,221,5.0,15.0,74,0.00,,,0.00,0.000000,,2013-01-26 04:21:00,
2013-01-25 21:52:00,38.0,29.0,-100.00,SW,223,6.0,13.0,70,0.00,,,0.00,0.000000,,2013-01-26 04:52:00,
2013-01-25 22:03:00,38.0,29.0,-100.00,SW,223,6.0,13.0,70,0.00,,,0.00,0.000000,,2013-01-26 05:03:00,
2013-01-25 22:12:00,38.0,29.0,-100.00,SW,223,6.0,13.0,70,0.00,,,0.00,0.000000,,2013-01-26 05:12:00,
2013-01-25 22:22:00,38.0,29.0,-100.00,SW,223,6.0,13.0,70,0.00,,,0.00,0.000000,,2013-01-26 05:22:00,
2013-01-25 22:52:00,37.0,30.0,-100.00,WNW,285,3.0,16.0,76,0.00,,,0.00,0.000000,,2013-01-26 05:52:00,
2013-01-25 23:02:00,37.0,30.0,-100.00,WNW,285,3.0,16.0,76,0.00,,,0.00,0.000000,,2013-01-26 06:02:00,
2013-01-25 23:12:00,37.0,30.0,-100.00,WNW,285,3.0,16.0,76,0.00,,,0.00,0.000000,,2013-01-26 06:12:00,
2013-01-25 23:21:00,37.0,30.0,-100.00,WNW,285,3.0,16.0,76,0.00,,,0.00,0.000000,,2013-01-26 06:21:00,
2013-01-25 23:52:00,38.0,27.0,-100.00,SW,218,11.0,22.0,64,0.00,,,0.00,0.000000,,2013-01-26 06:52:00,